SPAINSAT

Last updated on Sat Nov 01 2025 00:02:45 GMT+0000 (Coordinated Universal Time)

1 28945U 06007A 25303.97330758 -.00000206 00000+0 00000+0 0 9993 2 28945 0.0104 209.2364 0006243 18.1713 132.5758 1.00270832 71920
UTC large
Height (km)
Speed (km/s)
/
Latitude / Longitude
Inclination (degrees)
Orbital Period (minutes)
Azimuth
Elevation
Range (km)
Doppler Factor

Next 0 passes for location: London (51.5072 / 0.1276)

Sorry there are no passes over London.